Location: Bruderhein
(53.8035°N, 112.9265°W)
Time: 01:15:05
(UTC+00:00)

BEESAT - Pass Details

Date: 07 April 2023
Orbit: 696 x 706 km, 98.5° (Epoch: 31 May)

Event Time Altitude Azimuth Distance (km) Brightness Sun altitude
Rises 06:11:59 0° 9° (N) 3,114 ? -27.0°
Reaches altitude 10° 06:14:32 10° 358° (N) 2,189 ? -27.2°
Maximum altitude 06:18:30 27° 301° (WNW) 1,354 ? -27.4°
Enters shadow 06:21:24 15° 254° (WSW) 1,839 ? -27.5°
